Location: Unspecified
(41.1850°N, 73.2650°W)
Time: 21:30:22
(UTC+00:00)

Cosmos 2263 Rocket - Pass Details

Date: 14 December 2025
Orbit: 821 x 849 km, 71.0° (Epoch: 12 January)

Event Time Altitude Azimuth Distance (km) Brightness Sun altitude
Rises 22:35:03 0° 336° (NNW) 3,410 5.4 -12.8°
Reaches altitude 10° 22:37:30 10° 337° (NNW) 2,474 4.7 -13.2°
Maximum altitude 22:43:12 84° 66° (ENE) 857 2.1 -14.2°
Drops below altitude 10° 22:48:53 10° 156° (SSE) 2,465 4.6 -15.2°
Sets 22:51:19 0° 156° (SSE) 3,396 5.3 -15.7°
